"Sample Date","Sample Time","Sensor Name","Sample Value","Units","Flow Rate","Sample Interval","Sample Volume","Laser Status","Number Channels","Micron Size 0","Counts/Channel 0","Micron Size 1","Counts/Channel 1","Micron Size 2","Counts/Channel 2","Micron Size 3","Counts/Channel 3","Micron Size 4","Counts/Channel 4","Micron Size 5","Counts/Channel 5","Micron Size 6","Counts/Channel 6","Micron Size 7","Counts/Channel 7","Micron Size 8","Counts/Channel 8","Micron Size 9","Counts/Channel 9","Micron Size 10","Counts/Channel 10","Micron Size 11","Counts/Channel 11","Micron Size 12","Counts/Channel 12","Micron Size 13","Counts/Channel 13","Micron Size 14","Counts/Channel 14","Micron Size 15","Counts/Channel 15","Micron Size 16","Counts/Channel 16","Micron Size 17","Counts/Channel 17","Micron Size 18","Counts/Channel 18","Micron Size 19","Counts/Channel 19","Micron Size 20","Counts/Channel 20","Micron Size 21","Counts/Channel 21","Micron Size 22","Counts/Channel 22","Micron Size 23","Counts/Channel 23","Micron Size 24","Counts/Channel 24","Micron Size 25","Counts/Channel 25","Micron Size 26","Counts/Channel 26","Micron Size 27","Counts/Channel 27","Micron Size 28","Counts/Channel 28","Micron Size 29","Counts/Channel 29","Micron Size 30","Counts/Channel 30","Micron Size 31","Counts/Channel 31"
"07/02/06","23:00:02","AMMA06",78403.000,"cc",28274.688,6.00,2827.469,1,6,0.100,46602.000,0.200,24161.000,0.300,4811.000,0.500,1732.000,1.000,1097.000,5.000,0
"07/02/06","23:00:08","AMMA06",78901.000,"cc",28334.703,6.00,2833.471,1,6,0.100,47087.000,0.200,24284.000,0.300,4828.000,0.500,1669.000,1.000,1032.000,5.000,1.000
"07/02/06","23:00:14","AMMA06",78210.000,"cc",28355.934,6.00,2835.594,1,6,0.100,46343.000,0.200,24127.000,0.300,4868.000,0.500,1787.000,1.000,1085.000,5.000,0
"07/02/06","23:00:20","AMMA06",78301.000,"cc",28298.690,6.00,2829.869,1,6,0.100,46176.000,0.200,24533.000,0.300,4781.000,0.500,1744.000,1.000,1066.000,5.000,1.000
"07/02/06","23:00:26","AMMA06",78011.000,"cc",28308.016,6.00,2830.802,1,6,0.100,46340.000,0.200,24054.000,0.300,4825.000,0.500,1711.000,1.000,1080.000,5.000,1.000
"07/02/06","23:00:32","AMMA06",79046.000,"cc",28326.225,6.00,2832.623,1,6,0.100,46483.000,0.200,24672.000,0.300,5026.000,0.500,1748.000,1.000,1116.000,5.000,1.000
"07/02/06","23:00:38","AMMA06",78287.000,"cc",28301.940,6.00,2830.194,1,6,0.100,46208.000,0.200,24381.000,0.300,4867.000,0.500,1688.000,1.000,1140.000,5.000,3.000
"07/02/06","23:00:44","AMMA06",78666.000,"cc",28308.320,6.00,2830.832,1,6,0.100,46394.000,0.200,24436.000,0.300,4897.000,0.500,1805.000,1.000,1134.000,5.000,0
"07/02/06","23:00:50","AMMA06",79172.000,"cc",28338.877,6.00,2833.888,1,6,0.100,46725.000,0.200,24673.000,0.300,4868.000,0.500,1765.000,1.000,1138.000,5.000,3.000
"07/02/06","23:00:56","AMMA06",78865.000,"cc",28343.211,6.00,2834.321,1,6,0.100,46451.000,0.200,24617.000,0.300,4832.000,0.500,1789.000,1.000,1175.000,5.000,1.000
"07/02/06","23:01:02","AMMA06",78710.000,"cc",28289.971,6.00,2828.997,1,6,0.100,46592.000,0.200,24397.000,0.300,4933.000,0.500,1707.000,1.000,1080.000,5.000,1.000
"07/02/06","23:01:08","AMMA06",78785.000,"cc",28322.514,6.00,2832.252,1,6,0.100,46651.000,0.200,24446.000,0.300,4905.000,0.500,1713.000,1.000,1070.000,5.000,0
"07/02/06","23:01:14","AMMA06",78966.000,"cc",28324.830,6.00,2832.483,1,6,0.100,46918.000,0.200,24339.000,0.300,4798.000,0.500,1771.000,1.000,1139.000,5.000,1.000
"07/02/06","23:01:20","AMMA06",79167.000,"cc",28333.988,6.00,2833.399,1,6,0.100,46670.000,0.200,24681.000,0.300,4827.000,0.500,1823.000,1.000,1166.000,5.000,0
"07/02/06","23:01:26","AMMA06",78626.000,"cc",28241.705,6.00,2824.171,1,6,0.100,46370.000,0.200,24561.000,0.300,4856.000,0.500,1671.000,1.000,1167.000,5.000,1.000
"07/02/06","23:01:32","AMMA06",79130.000,"cc",28319.715,6.00,2831.972,1,6,0.100,46854.000,0.200,24473.000,0.300,4805.000,0.500,1826.000,1.000,1172.000,5.000,0
"07/02/06","23:01:38","AMMA06",79054.000,"cc",28344.861,6.00,2834.486,1,6,0.100,46826.000,0.200,24513.000,0.300,4836.000,0.500,1797.000,1.000,1082.000,5.000,0
"07/02/06","23:01:44","AMMA06",78565.000,"cc",28292.266,6.00,2829.227,1,6,0.100,46603.000,0.200,24292.000,0.300,4827.000,0.500,1790.000,1.000,1053.000,5.000,0
"07/02/06","23:01:50","AMMA06",78591.000,"cc",28348.207,6.00,2834.821,1,6,0.100,46630.000,0.200,24378.000,0.300,4645.000,0.500,1807.000,1.000,1131.000,5.000,0
"07/02/06","23:01:56","AMMA06",78746.000,"cc",28311.904,6.00,2831.191,1,6,0.100,46823.000,0.200,24238.000,0.300,4782.000,0.500,1780.000,1.000,1122.000,5.000,1.000
"07/02/06","23:02:02","AMMA06",78808.000,"cc",28322.031,6.00,2832.203,1,6,0.100,46570.000,0.200,24598.000,0.300,4758.000,0.500,1763.000,1.000,1119.000,5.000,0
"07/02/06","23:02:08","AMMA06",78058.000,"cc",28321.303,6.00,2832.130,1,6,0.100,46604.000,0.200,23996.000,0.300,4623.000,0.500,1735.000,1.000,1100.000,5.000,0
"07/02/06","23:02:14","AMMA06",78390.000,"cc",28332.830,6.00,2833.283,1,6,0.100,46671.000,0.200,24146.000,0.300,4634.000,0.500,1779.000,1.000,1159.000,5.000,1.000
"07/02/06","23:02:20","AMMA06",78743.000,"cc",28244.033,6.00,2824.404,1,6,0.100,46948.000,0.200,24202.000,0.300,4691.000,0.500,1797.000,1.000,1103.000,5.000,2.000
"07/02/06","23:02:26","AMMA06",77863.000,"cc",28307.147,6.00,2830.715,1,6,0.100,46671.000,0.200,23700.000,0.300,4673.000,0.500,1783.000,1.000,1034.000,5.000,2.000
"07/02/06","23:02:32","AMMA06",77927.000,"cc",28342.498,6.00,2834.250,1,6,0.100,46461.000,0.200,23980.000,0.300,4706.000,0.500,1737.000,1.000,1041.000,5.000,2.000
"07/02/06","23:02:38","AMMA06",78114.000,"cc",28294.500,6.00,2829.450,1,6,0.100,46597.000,0.200,24041.000,0.300,4677.000,0.500,1747.000,1.000,1050.000,5.000,2.000
"07/02/06","23:02:44","AMMA06",78209.000,"cc",28343.520,6.00,2834.352,1,6,0.100,46776.000,0.200,23692.000,0.300,4773.000,0.500,1832.000,1.000,1136.000,5.000,0
"07/02/06","23:02:50","AMMA06",77754.000,"cc",28330.729,6.00,2833.073,1,6,0.100,46474.000,0.200,24014.000,0.300,4503.000,0.500,1698.000,1.000,1064.000,5.000,1.000
"07/02/06","23:02:56","AMMA06",77750.000,"cc",28347.705,6.00,2834.771,1,6,0.100,46499.000,0.200,23793.000,0.300,4696.000,0.500,1719.000,1.000,1041.000,5.000,2.000
"07/02/06","23:03:02","AMMA06",77805.000,"cc",28311.207,6.00,2831.121,1,6,0.100,46399.000,0.200,23906.000,0.300,4685.000,0.500,1691.000,1.000,1124.000,5.000,0
"07/02/06","23:03:08","AMMA06",78071.000,"cc",28363.143,6.00,2836.315,1,6,0.100,46528.000,0.200,24080.000,0.300,4692.000,0.500,1760.000,1.000,1009.000,5.000,2.000
"07/02/06","23:03:14","AMMA06",78240.000,"cc",28301.522,6.00,2830.152,1,6,0.100,46498.000,0.200,24182.000,0.300,4618.000,0.500,1795.000,1.000,1146.000,5.000,1.000
"07/02/06","23:03:20","AMMA06",78079.000,"cc",28282.205,6.00,2828.221,1,6,0.100,46898.000,0.200,23798.000,0.300,4608.000,0.500,1689.000,1.000,1086.000,5.000,0
"07/02/06","23:03:26","AMMA06",77846.000,"cc",28283.906,6.00,2828.391,1,6,0.100,46641.000,0.200,23763.000,0.300,4574.000,0.500,1751.000,1.000,1116.000,5.000,1.000
"07/02/06","23:03:32","AMMA06",77817.000,"cc",28331.354,6.00,2833.136,1,6,0.100,46619.000,0.200,23747.000,0.300,4583.000,0.500,1756.000,1.000,1112.000,5.000,0
"07/02/06","23:03:38","AMMA06",77885.000,"cc",28330.992,6.00,2833.099,1,6,0.100,46462.000,0.200,23854.000,0.300,4618.000,0.500,1820.000,1.000,1131.000,5.000,0
"07/02/06","23:03:44","AMMA06",77962.000,"cc",28241.352,6.00,2824.135,1,6,0.100,46891.000,0.200,23533.000,0.300,4625.000,0.500,1805.000,1.000,1104.000,5.000,4.000
"07/02/06","23:03:50","AMMA06",77706.000,"cc",28323.022,6.00,2832.302,1,6,0.100,46569.000,0.200,23636.000,0.300,4691.000,0.500,1763.000,1.000,1047.000,5.000,0
"07/02/06","23:03:56","AMMA06",77890.000,"cc",28326.111,6.00,2832.611,1,6,0.100,46853.000,0.200,23838.000,0.300,4491.000,0.500,1683.000,1.000,1024.000,5.000,1.000
"07/02/06","23:04:02","AMMA06",77803.000,"cc",28277.504,6.00,2827.751,1,6,0.100,46653.000,0.200,23778.000,0.300,4532.000,0.500,1797.000,1.000,1041.000,5.000,2.000
"07/02/06","23:04:08","AMMA06",78048.000,"cc",28361.947,6.00,2836.195,1,6,0.100,47034.000,0.200,23613.000,0.300,4498.000,0.500,1785.000,1.000,1117.000,5.000,1.000
"07/02/06","23:04:14","AMMA06",77219.000,"cc",28337.508,6.00,2833.751,1,6,0.100,46458.000,0.200,23495.000,0.300,4489.000,0.500,1715.000,1.000,1060.000,5.000,2.000
"07/02/06","23:04:20","AMMA06",77915.000,"cc",28324.018,6.00,2832.402,1,6,0.100,47075.000,0.200,23526.000,0.300,4577.000,0.500,1721.000,1.000,1016.000,5.000,0
"07/02/06","23:04:26","AMMA06",78604.000,"cc",28374.447,6.00,2837.445,1,6,0.100,47404.000,0.200,23666.000,0.300,4607.000,0.500,1824.000,1.000,1103.000,5.000,0
"07/02/06","23:04:32","AMMA06",77025.000,"cc",28285.361,6.00,2828.536,1,6,0.100,46119.000,0.200,23557.000,0.300,4549.000,0.500,1759.000,1.000,1041.000,5.000,0
"07/02/06","23:04:38","AMMA06",77894.000,"cc",28315.289,6.00,2831.529,1,6,0.100,46995.000,0.200,23277.000,0.300,4664.000,0.500,1857.000,1.000,1100.000,5.000,1.000
"07/02/06","23:04:44","AMMA06",77808.000,"cc",28323.992,6.00,2832.399,1,6,0.100,46522.000,0.200,23874.000,0.300,4590.000,0.500,1720.000,1.000,1101.000,5.000,1.000
"07/02/06","23:04:50","AMMA06",77870.000,"cc",28279.018,6.00,2827.902,1,6,0.100,46584.000,0.200,23806.000,0.300,4665.000,0.500,1707.000,1.000,1107.000,5.000,1.000
"07/02/06","23:04:56","AMMA06",78164.000,"cc",28321.188,6.00,2832.119,1,6,0.100,46944.000,0.200,23731.000,0.300,4545.000,0.500,1815.000,1.000,1129.000,5.000,0
"07/02/06","23:05:02","AMMA06",78248.000,"cc",28314.109,6.00,2831.411,1,6,0.100,47128.000,0.200,23715.000,0.300,4555.000,0.500,1752.000,1.000,1097.000,5.000,1.000
"07/02/06","23:05:08","AMMA06",78129.000,"cc",28348.943,6.00,2834.895,1,6,0.100,46824.000,0.200,23854.000,0.300,4566.000,0.500,1784.000,1.000,1101.000,5.000,0
"07/02/06","23:05:14","AMMA06",78059.000,"cc",28327.701,6.00,2832.770,1,6,0.100,46757.000,0.200,23709.000,0.300,4699.000,0.500,1719.000,1.000,1174.000,5.000,1.000
"07/02/06","23:05:20","AMMA06",77750.000,"cc",28322.416,6.00,2832.242,1,6,0.100,46431.000,0.200,23738.000,0.300,4731.000,0.500,1740.000,1.000,1109.000,5.000,1.000
"07/02/06","23:05:26","AMMA06",78153.000,"cc",28332.943,6.00,2833.294,1,6,0.100,46624.000,0.200,23948.000,0.300,4763.000,0.500,1745.000,1.000,1071.000,5.000,2.000
"07/02/06","23:05:32","AMMA06",77930.000,"cc",28283.287,6.00,2828.329,1,6,0.100,46619.000,0.200,23779.000,0.300,4630.000,0.500,1757.000,1.000,1143.000,5.000,2.000
"07/02/06","23:05:38","AMMA06",78563.000,"cc",28292.178,6.00,2829.218,1,6,0.100,47041.000,0.200,24091.000,0.300,4621.000,0.500,1738.000,1.000,1072.000,5.000,0
"07/02/06","23:05:44","AMMA06",78092.000,"cc",28318.262,6.00,2831.826,1,6,0.100,46919.000,0.200,23660.000,0.300,4662.000,0.500,1759.000,1.000,1091.000,5.000,1.000
"07/02/06","23:05:50","AMMA06",77653.000,"cc",28341.563,6.00,2834.157,1,6,0.100,46523.000,0.200,23769.000,0.300,4518.000,0.500,1755.000,1.000,1087.000,5.000,1.000
"07/02/06","23:05:56","AMMA06",77810.000,"cc",28305.359,6.00,2830.536,1,6,0.100,46680.000,0.200,23675.000,0.300,4646.000,0.500,1729.000,1.000,1077.000,5.000,3.000
"07/02/06","23:06:02","AMMA06",78301.000,"cc",28329.102,6.00,2832.910,1,6,0.100,46979.000,0.200,23864.000,0.300,4713.000,0.500,1660.000,1.000,1081.000,5.000,4.000
"07/02/06","23:06:08","AMMA06",77974.000,"cc",28320.916,6.00,2832.092,1,6,0.100,46684.000,0.200,23940.000,0.300,4582.000,0.500,1684.000,1.000,1084.000,5.000,0
"07/02/06","23:06:14","AMMA06",77860.000,"cc",28351.170,6.00,2835.117,1,6,0.100,46679.000,0.200,23717.000,0.300,4653.000,0.500,1728.000,1.000,1081.000,5.000,2.000
"07/02/06","23:06:20","AMMA06",78318.000,"cc",28303.594,6.00,2830.360,1,6,0.100,47085.000,0.200,23863.000,0.300,4569.000,0.500,1742.000,1.000,1059.000,5.000,0
"07/02/06","23:06:26","AMMA06",77889.000,"cc",28294.764,6.00,2829.477,1,6,0.100,46721.000,0.200,23753.000,0.300,4575.000,0.500,1746.000,1.000,1093.000,5.000,1.000
"07/02/06","23:06:32","AMMA06",78073.000,"cc",28304.900,6.00,2830.490,1,6,0.100,46529.000,0.200,24118.000,0.300,4623.000,0.500,1747.000,1.000,1055.000,5.000,1.000
"07/02/06","23:06:38","AMMA06",77953.000,"cc",28317.174,6.00,2831.718,1,6,0.100,46607.000,0.200,23899.000,0.300,4636.000,0.500,1754.000,1.000,1056.000,5.000,1.000
"07/02/06","23:06:44","AMMA06",78047.000,"cc",28334.859,6.00,2833.486,1,6,0.100,46372.000,0.200,24125.000,0.300,4639.000,0.500,1758.000,1.000,1153.000,5.000,0
"07/02/06","23:06:50","AMMA06",78019.000,"cc",28305.645,6.00,2830.565,1,6,0.100,46768.000,0.200,23765.000,0.300,4638.000,0.500,1747.000,1.000,1101.000,5.000,0
"07/02/06","23:06:56","AMMA06",78855.000,"cc",28328.121,6.00,2832.812,1,6,0.100,47159.000,0.200,24019.000,0.300,4745.000,0.500,1789.000,1.000,1140.000,5.000,3.000
"07/02/06","23:07:02","AMMA06",78358.000,"cc",28335.572,6.00,2833.557,1,6,0.100,46769.000,0.200,24056.000,0.300,4705.000,0.500,1722.000,1.000,1104.000,5.000,2.000
"07/02/06","23:07:08","AMMA06",78066.000,"cc",28286.422,6.00,2828.642,1,6,0.100,46840.000,0.200,23780.000,0.300,4611.000,0.500,1774.000,1.000,1060.000,5.000,1.000
"07/02/06","23:07:14","AMMA06",78074.000,"cc",28360.809,6.00,2836.081,1,6,0.100,46598.000,0.200,23876.000,0.300,4670.000,0.500,1772.000,1.000,1157.000,5.000,1.000
"07/02/06","23:07:20","AMMA06",78082.000,"cc",28326.287,6.00,2832.629,1,6,0.100,46621.000,0.200,23837.000,0.300,4708.000,0.500,1815.000,1.000,1101.000,5.000,0
"07/02/06","23:07:26","AMMA06",78443.000,"cc",28287.172,6.00,2828.717,1,6,0.100,46656.000,0.200,24102.000,0.300,4695.000,0.500,1796.000,1.000,1193.000,5.000,1.000
"07/02/06","23:07:32","AMMA06",78010.000,"cc",28289.645,6.00,2828.965,1,6,0.100,46564.000,0.200,24027.000,0.300,4615.000,0.500,1674.000,1.000,1130.000,5.000,0
"07/02/06","23:07:38","AMMA06",78493.000,"cc",28317.621,6.00,2831.762,1,6,0.100,46974.000,0.200,23964.000,0.300,4673.000,0.500,1732.000,1.000,1150.000,5.000,0
"07/02/06","23:07:43","AMMA06",78327.000,"cc",28328.697,6.00,2832.870,1,6,0.100,46881.000,0.200,23937.000,0.300,4566.000,0.500,1766.000,1.000,1176.000,5.000,1.000
"07/02/06","23:07:49","AMMA06",78493.000,"cc",28339.041,6.00,2833.904,1,6,0.100,46841.000,0.200,24074.000,0.300,4714.000,0.500,1764.000,1.000,1097.000,5.000,3.000
"07/02/06","23:07:55","AMMA06",78437.000,"cc",28350.111,6.00,2835.011,1,6,0.100,46959.000,0.200,23876.000,0.300,4666.000,0.500,1795.000,1.000,1140.000,5.000,1.000
"07/02/06","23:08:01","AMMA06",78635.000,"cc",28293.270,6.00,2829.327,1,6,0.100,46679.000,0.200,24356.000,0.300,4804.000,0.500,1725.000,1.000,1071.000,5.000,0
"07/02/06","23:08:07","AMMA06",79133.000,"cc",28292.904,6.00,2829.291,1,6,0.100,47094.000,0.200,24432.000,0.300,4665.000,0.500,1804.000,1.000,1138.000,5.000,0
"07/02/06","23:08:13","AMMA06",78612.000,"cc",28296.949,6.00,2829.695,1,6,0.100,46685.000,0.200,24146.000,0.300,4884.000,0.500,1819.000,1.000,1077.000,5.000,1.000
"07/02/06","23:08:19","AMMA06",78732.000,"cc",28354.594,6.00,2835.460,1,6,0.100,46865.000,0.200,24153.000,0.300,4783.000,0.500,1770.000,1.000,1160.000,5.000,1.000
"07/02/06","23:08:25","AMMA06",78670.000,"cc",28290.072,6.00,2829.007,1,6,0.100,46613.000,0.200,24292.000,0.300,4930.000,0.500,1754.000,1.000,1081.000,5.000,0
"07/02/06","23:08:31","AMMA06",78233.000,"cc",28355.303,6.00,2835.531,1,6,0.100,46491.000,0.200,23946.000,0.300,4826.000,0.500,1842.000,1.000,1128.000,5.000,0
"07/02/06","23:08:37","AMMA06",78621.000,"cc",28263.168,6.00,2826.317,1,6,0.100,46422.000,0.200,24278.000,0.300,4913.000,0.500,1816.000,1.000,1191.000,5.000,1.000
"07/02/06","23:08:43","AMMA06",79278.000,"cc",28286.697,6.00,2828.670,1,6,0.100,47090.000,0.200,24316.000,0.300,4854.000,0.500,1827.000,1.000,1188.000,5.000,3.000
"07/02/06","23:08:49","AMMA06",78877.000,"cc",28313.035,6.00,2831.304,1,6,0.100,46795.000,0.200,24291.000,0.300,4880.000,0.500,1751.000,1.000,1159.000,5.000,1.000
"07/02/06","23:08:55","AMMA06",79051.000,"cc",28317.176,6.00,2831.718,1,6,0.100,46652.000,0.200,24487.000,0.300,4911.000,0.500,1804.000,1.000,1195.000,5.000,2.000
"07/02/06","23:09:01","AMMA06",79057.000,"cc",28384.217,6.00,2838.422,1,6,0.100,46361.000,0.200,24642.000,0.300,5041.000,0.500,1822.000,1.000,1190.000,5.000,1.000
"07/02/06","23:09:07","AMMA06",78600.000,"cc",28375.604,6.00,2837.561,1,6,0.100,46306.000,0.200,24438.000,0.300,4800.000,0.500,1808.000,1.000,1246.000,5.000,2.000
"07/02/06","23:09:13","AMMA06",79623.000,"cc",28300.496,6.00,2830.050,1,6,0.100,46995.000,0.200,24675.000,0.300,4905.000,0.500,1823.000,1.000,1224.000,5.000,1.000
"07/02/06","23:09:19","AMMA06",79162.000,"cc",28218.961,6.00,2821.896,1,6,0.100,46612.000,0.200,24723.000,0.300,4892.000,0.500,1775.000,1.000,1159.000,5.000,1.000
"07/02/06","23:09:25","AMMA06",78780.000,"cc",28329.773,6.00,2832.978,1,6,0.100,46571.000,0.200,24501.000,0.300,4927.000,0.500,1701.000,1.000,1080.000,5.000,0
"07/02/06","23:09:31","AMMA06",78962.000,"cc",28311.693,6.00,2831.169,1,6,0.100,46701.000,0.200,24566.000,0.300,4861.000,0.500,1675.000,1.000,1156.000,5.000,3.000
"07/02/06","23:09:37","AMMA06",79093.000,"cc",28302.852,6.00,2830.285,1,6,0.100,46902.000,0.200,24463.000,0.300,4808.000,0.500,1763.000,1.000,1156.000,5.000,1.000
"07/02/06","23:09:43","AMMA06",78474.000,"cc",28337.088,6.00,2833.709,1,6,0.100,46677.000,0.200,24003.000,0.300,4896.000,0.500,1764.000,1.000,1134.000,5.000,0
"07/02/06","23:09:49","AMMA06",78776.000,"cc",28276.803,6.00,2827.680,1,6,0.100,46687.000,0.200,24378.000,0.300,4756.000,0.500,1802.000,1.000,1153.000,5.000,0
"07/02/06","23:09:55","AMMA06",78883.000,"cc",28351.385,6.00,2835.139,1,6,0.100,46870.000,0.200,24281.000,0.300,4801.000,0.500,1762.000,1.000,1169.000,5.000,0
"07/02/06","23:10:01","AMMA06",78931.000,"cc",28317.232,6.00,2831.723,1,6,0.100,46942.000,0.200,24178.000,0.300,4885.000,0.500,1755.000,1.000,1170.000,5.000,1.000
"07/02/06","23:10:07","AMMA06",77811.000,"cc",28382.592,6.00,2838.259,1,6,0.100,46456.000,0.200,23790.000,0.300,4806.000,0.500,1686.000,1.000,1073.000,5.000,0
"07/02/06","23:10:13","AMMA06",78621.000,"cc",28298.123,6.00,2829.813,1,6,0.100,46571.000,0.200,24272.000,0.300,4865.000,0.500,1790.000,1.000,1123.000,5.000,0
"07/02/06","23:10:19","AMMA06",78588.000,"cc",28333.438,6.00,2833.344,1,6,0.100,46692.000,0.200,24324.000,0.300,4643.000,0.500,1762.000,1.000,1167.000,5.000,0
"07/02/06","23:10:25","AMMA06",78230.000,"cc",28269.106,6.00,2826.911,1,6,0.100,46554.000,0.200,24112.000,0.300,4636.000,0.500,1801.000,1.000,1126.000,5.000,1.000
"07/02/06","23:10:31","AMMA06",78459.000,"cc",28271.195,6.00,2827.120,1,6,0.100,46790.000,0.200,24047.000,0.300,4654.000,0.500,1818.000,1.000,1147.000,5.000,3.000
"07/02/06","23:10:37","AMMA06",78576.000,"cc",28292.598,6.00,2829.260,1,6,0.100,46779.000,0.200,24133.000,0.300,4782.000,0.500,1786.000,1.000,1096.000,5.000,0
"07/02/06","23:10:43","AMMA06",78033.000,"cc",28356.186,6.00,2835.619,1,6,0.100,46336.000,0.200,24153.000,0.300,4624.000,0.500,1798.000,1.000,1122.000,5.000,0
"07/02/06","23:10:49","AMMA06",77965.000,"cc",28321.041,6.00,2832.104,1,6,0.100,46380.000,0.200,24069.000,0.300,4716.000,0.500,1706.000,1.000,1094.000,5.000,0
"07/02/06","23:10:55","AMMA06",78313.000,"cc",28375.279,6.00,2837.528,1,6,0.100,46659.000,0.200,24081.000,0.300,4731.000,0.500,1748.000,1.000,1093.000,5.000,1.000
"07/02/06","23:11:01","AMMA06",78416.000,"cc",28307.986,6.00,2830.799,1,6,0.100,46667.000,0.200,24266.000,0.300,4712.000,0.500,1695.000,1.000,1076.000,5.000,0
"07/02/06","23:11:07","AMMA06",78243.000,"cc",28282.586,6.00,2828.259,1,6,0.100,46843.000,0.200,23879.000,0.300,4647.000,0.500,1769.000,1.000,1105.000,5.000,0
"07/02/06","23:11:13","AMMA06",77839.000,"cc",28293.658,6.00,2829.366,1,6,0.100,46524.000,0.200,23937.000,0.300,4524.000,0.500,1738.000,1.000,1115.000,5.000,1.000
"07/02/06","23:11:19","AMMA06",77720.000,"cc",28342.947,6.00,2834.295,1,6,0.100,46701.000,0.200,23610.000,0.300,4619.000,0.500,1729.000,1.000,1061.000,5.000,0
"07/02/06","23:11:25","AMMA06",78032.000,"cc",28343.377,6.00,2834.338,1,6,0.100,46759.000,0.200,23783.000,0.300,4715.000,0.500,1658.000,1.000,1117.000,5.000,0
"07/02/06","23:11:31","AMMA06",77345.000,"cc",28293.053,6.00,2829.305,1,6,0.100,46276.000,0.200,23605.000,0.300,4643.000,0.500,1717.000,1.000,1103.000,5.000,1.000
"07/02/06","23:11:37","AMMA06",77220.000,"cc",28291.791,6.00,2829.179,1,6,0.100,46313.000,0.200,23608.000,0.300,4566.000,0.500,1669.000,1.000,1064.000,5.000,0
"07/02/06","23:11:43","AMMA06",78260.000,"cc",28304.623,6.00,2830.462,1,6,0.100,46889.000,0.200,23868.000,0.300,4629.000,0.500,1761.000,1.000,1113.000,5.000,0
"07/02/06","23:11:49","AMMA06",77539.000,"cc",28348.924,6.00,2834.893,1,6,0.100,46294.000,0.200,23775.000,0.300,4591.000,0.500,1775.000,1.000,1103.000,5.000,1.000
"07/02/06","23:11:55","AMMA06",77960.000,"cc",28364.346,6.00,2836.435,1,6,0.100,46602.000,0.200,23940.000,0.300,4580.000,0.500,1718.000,1.000,1119.000,5.000,1.000
"07/02/06","23:12:01","AMMA06",77905.000,"cc",28306.723,6.00,2830.672,1,6,0.100,46751.000,0.200,23735.000,0.300,4636.000,0.500,1735.000,1.000,1047.000,5.000,1.000
"07/02/06","23:12:07","AMMA06",77832.000,"cc",28311.385,6.00,2831.139,1,6,0.100,46529.000,0.200,23783.000,0.300,4686.000,0.500,1754.000,1.000,1079.000,5.000,1.000
"07/02/06","23:12:13","AMMA06",77986.000,"cc",28295.141,6.00,2829.514,1,6,0.100,46863.000,0.200,23601.000,0.300,4580.000,0.500,1805.000,1.000,1136.000,5.000,1.000
"07/02/06","23:12:19","AMMA06",77883.000,"cc",28324.369,6.00,2832.437,1,6,0.100,46567.000,0.200,23874.000,0.300,4609.000,0.500,1710.000,1.000,1122.000,5.000,1.000
"07/02/06","23:12:25","AMMA06",77957.000,"cc",28307.289,6.00,2830.729,1,6,0.100,46741.000,0.200,23684.000,0.300,4651.000,0.500,1803.000,1.000,1078.000,5.000,0
"07/02/06","23:12:31","AMMA06",77378.000,"cc",28252.061,6.00,2825.206,1,6,0.100,46266.000,0.200,23759.000,0.300,4551.000,0.500,1757.000,1.000,1044.000,5.000,1.000
"07/02/06","23:12:37","AMMA06",77524.000,"cc",28348.783,6.00,2834.878,1,6,0.100,46680.000,0.200,23458.000,0.300,4549.000,0.500,1762.000,1.000,1073.000,5.000,2.000
"07/02/06","23:12:43","AMMA06",77854.000,"cc",28331.922,6.00,2833.192,1,6,0.100,46865.000,0.200,23740.000,0.300,4505.000,0.500,1725.000,1.000,1019.000,5.000,0
"07/02/06","23:12:49","AMMA06",78016.000,"cc",28310.693,6.00,2831.070,1,6,0.100,46584.000,0.200,23875.000,0.300,4670.000,0.500,1774.000,1.000,1111.000,5.000,2.000
"07/02/06","23:12:55","AMMA06",78022.000,"cc",28279.809,6.00,2827.981,1,6,0.100,46891.000,0.200,23604.000,0.300,4713.000,0.500,1807.000,1.000,1007.000,5.000,0
"07/02/06","23:13:01","AMMA06",77792.000,"cc",28323.541,6.00,2832.354,1,6,0.100,46800.000,0.200,23665.000,0.300,4641.000,0.500,1668.000,1.000,1017.000,5.000,1.000
"07/02/06","23:13:07","AMMA06",78455.000,"cc",28376.748,6.00,2837.675,1,6,0.100,47139.000,0.200,23911.000,0.300,4621.000,0.500,1749.000,1.000,1035.000,5.000,0
"07/02/06","23:13:13","AMMA06",77397.000,"cc",28307.496,6.00,2830.750,1,6,0.100,46215.000,0.200,23782.000,0.300,4574.000,0.500,1766.000,1.000,1059.000,5.000,1.000
"07/02/06","23:13:19","AMMA06",77528.000,"cc",28299.086,6.00,2829.909,1,6,0.100,46644.000,0.200,23532.000,0.300,4600.000,0.500,1730.000,1.000,1021.000,5.000,1.000
"07/02/06","23:13:25","AMMA06",77635.000,"cc",28359.512,6.00,2835.951,1,6,0.100,46260.000,0.200,23977.000,0.300,4648.000,0.500,1683.000,1.000,1067.000,5.000,0
"07/02/06","23:13:31","AMMA06",77682.000,"cc",28300.791,6.00,2830.079,1,6,0.100,46456.000,0.200,23672.000,0.300,4719.000,0.500,1762.000,1.000,1073.000,5.000,0
"07/02/06","23:13:37","AMMA06",78133.000,"cc",28288.148,6.00,2828.815,1,6,0.100,46549.000,0.200,24001.000,0.300,4686.000,0.500,1766.000,1.000,1129.000,5.000,2.000
"07/02/06","23:13:43","AMMA06",78055.000,"cc",28279.428,6.00,2827.943,1,6,0.100,46855.000,0.200,23711.000,0.300,4624.000,0.500,1777.000,1.000,1087.000,5.000,1.000
"07/02/06","23:13:49","AMMA06",78045.000,"cc",28308.764,6.00,2830.877,1,6,0.100,46688.000,0.200,23803.000,0.300,4721.000,0.500,1736.000,1.000,1095.000,5.000,2.000